WZZ941 LIME-LBSF

Flight info

Callsign WZZ941
Flight time 1h 33m
Altitude 37000
Route OSKOR L615 NOBMI DCT LAPAB DCT BABAG DCT RUGOG DCT RUDIK DCT OKSIG DCT YULHU DCT VEBAR DCT NISVA
Aircraft A321/M-SDE1E2E3FGIJ1J4RWXY/LB1

Departure

Time 2026-05-04 18:07
Airport Il Caravaggio International Airport (LIME)

Arrival

Time 2026-05-04 19:41
Airport Sofia Airport (LBSF)
Time Latitude Longitude Altitude Speed Heading
2026-05-04 17:52 45.66537 9.70640 787 ft 0 kts 195°
2026-05-04 18:00 45.66552 9.70646 787 ft 4 kts 197°
2026-05-04 18:00 45.66573 9.70655 787 ft 3 kts 195°
2026-05-04 18:01 45.66598 9.70661 787 ft 4 kts 175°
2026-05-04 18:01 45.66620 9.70651 787 ft 4 kts 121°
2026-05-04 18:01 45.66624 9.70641 787 ft 0 kts 105°
2026-05-04 18:03 45.66623 9.70642 787 ft 1 kts 105°
2026-05-04 18:03 45.66620 9.70659 787 ft 3 kts 105°
2026-05-04 18:04 45.66607 9.70729 787 ft 15 kts 104°
2026-05-04 18:04 45.66578 9.70889 787 ft 18 kts 104°
2026-05-04 18:04 45.66480 9.71333 787 ft 26 kts 105°
2026-05-04 18:05 45.66439 9.71582 787 ft 26 kts 93°
2026-05-04 18:05 45.66472 9.71826 787 ft 25 kts 87°
2026-05-04 18:05 45.66436 9.72060 787 ft 23 kts 104°
2026-05-04 18:05 45.66398 9.72269 787 ft 15 kts 104°
2026-05-04 18:06 45.66379 9.72378 787 ft 0 kts 104°
2026-05-04 18:06 45.66374 9.72404 787 ft 9 kts 104°
2026-05-04 18:06 45.66413 9.72510 787 ft 15 kts
2026-05-04 18:07 45.66471 9.72369 787 ft 31 kts 284°
2026-05-04 18:07 45.66597 9.71699 787 ft 106 kts 285°
2026-05-04 18:07 45.66839 9.70392 832 ft 159 kts 283°
2026-05-04 18:07 45.67101 9.68873 1535 ft 157 kts 276°
2026-05-04 18:08 45.66999 9.67300 2244 ft 163 kts 253°
2026-05-04 18:08 45.66410 9.65872 2866 ft 177 kts 227°
2026-05-04 18:08 45.65465 9.64586 3345 ft 200 kts 217°
2026-05-04 18:08 45.64077 9.63987 3620 ft 224 kts 177°
2026-05-04 18:09 45.61733 9.67122 4291 ft 265 kts 100°
2026-05-04 18:09 45.61887 9.72414 6007 ft 270 kts 85°
2026-05-04 18:10 45.62096 9.75091 6808 ft 273 kts 85°
2026-05-04 18:10 45.62307 9.77806 7575 ft 277 kts 86°
2026-05-04 18:10 45.62517 9.80564 8354 ft 281 kts 87°
2026-05-04 18:10 45.62673 9.83357 9149 ft 284 kts 89°
2026-05-04 18:11 45.62788 9.86190 9944 ft 287 kts 90°
2026-05-04 18:11 45.62887 9.89086 10442 ft 301 kts 90°
2026-05-04 18:11 45.62990 9.92191 10649 ft 325 kts 89°
2026-05-04 18:11 45.63104 9.95522 10896 ft 344 kts 89°
2026-05-04 18:12 45.63231 9.98984 11463 ft 352 kts 89°
2026-05-04 18:12 45.63366 10.02463 12092 ft 358 kts 89°
2026-05-04 18:12 45.63506 10.06043 12737 ft 364 kts 89°
2026-05-04 18:12 45.63647 10.09678 13381 ft 369 kts 89°
2026-05-04 18:13 45.63787 10.13373 14003 ft 375 kts 89°
2026-05-04 18:13 45.63928 10.17120 14597 ft 380 kts 88°
2026-05-04 18:13 45.64213 10.24731 15869 ft 387 kts 88°
2026-05-04 18:14 45.64355 10.28587 16513 ft 390 kts 88°
2026-05-04 18:14 45.64496 10.32477 17122 ft 394 kts 88°
2026-05-04 18:14 45.64636 10.36409 17725 ft 398 kts 88°
2026-05-04 18:15 45.64894 10.44386 18842 ft 406 kts 89°
2026-05-04 18:15 45.64764 10.52501 19942 ft 411 kts 99°
2026-05-04 18:15 45.64397 10.56562 20520 ft 413 kts 98°
2026-05-04 18:16 45.64047 10.60649 21090 ft 416 kts 98°
2026-05-04 18:16 45.63718 10.64764 21645 ft 418 kts 97°
2026-05-04 18:16 45.63403 10.68909 22175 ft 421 kts 97°
2026-05-04 18:17 45.62787 10.77277 23194 ft 426 kts 97°
2026-05-04 18:17 45.62473 10.81506 23680 ft 429 kts 97°
2026-05-04 18:17 45.61820 10.90036 24498 ft 434 kts 98°
2026-05-04 18:18 45.61484 10.94334 24897 ft 437 kts 98°
2026-05-04 18:18 45.61142 10.98654 25295 ft 439 kts 98°
2026-05-04 18:18 45.60796 11.03002 25698 ft 441 kts 98°
2026-05-04 18:18 45.60446 11.07372 26105 ft 444 kts 98°
2026-05-04 18:19 45.59744 11.16165 26873 ft 448 kts 98°
2026-05-04 18:19 45.59386 11.20595 27251 ft 450 kts 98°
2026-05-04 18:19 45.59026 11.25050 27636 ft 453 kts 98°
2026-05-04 18:20 45.58662 11.29528 28010 ft 455 kts 98°
2026-05-04 18:20 45.58294 11.34031 28364 ft 457 kts 98°
2026-05-04 18:20 45.57924 11.38549 28713 ft 460 kts 98°
2026-05-04 18:20 45.57551 11.43096 29062 ft 462 kts 98°
2026-05-04 18:21 45.57176 11.47662 29411 ft 465 kts 98°
2026-05-04 18:21 45.56797 11.52250 29760 ft 467 kts 98°
2026-05-04 18:21 45.56543 11.55302 29993 ft 468 kts 98°
2026-05-04 18:21 45.56021 11.61495 30409 ft 471 kts 98°
2026-05-04 18:22 45.55760 11.64565 30661 ft 471 kts 98°
2026-05-04 18:22 45.55364 11.69206 31032 ft 471 kts 98°
2026-05-04 18:22 45.54967 11.73846 31390 ft 471 kts 99°
2026-05-04 18:22 45.54568 11.78489 31745 ft 472 kts 98°
2026-05-04 18:23 45.54041 11.84646 32219 ft 472 kts 98°
2026-05-04 18:23 45.53771 11.87787 32460 ft 473 kts 98°
2026-05-04 18:23 45.53364 11.92442 32810 ft 473 kts 98°
2026-05-04 18:23 45.52953 11.97097 33149 ft 474 kts 99°
2026-05-04 18:24 45.52493 12.01750 33491 ft 474 kts 100°
2026-05-04 18:24 45.51965 12.06396 33836 ft 474 kts 101°
2026-05-04 18:24 45.51391 12.11029 34157 ft 475 kts 102°
2026-05-04 18:24 45.50798 12.15658 34446 ft 475 kts 102°
2026-05-04 18:25 45.50214 12.20229 34727 ft 475 kts 101°
2026-05-04 18:25 45.49634 12.24866 35029 ft 475 kts 101°
2026-05-04 18:25 45.49067 12.29503 35337 ft 475 kts 101°
2026-05-04 18:25 45.48511 12.34130 35640 ft 475 kts 101°
2026-05-04 18:26 45.47956 12.38772 35944 ft 474 kts 101°
2026-05-04 18:26 45.47398 12.43401 36250 ft 474 kts 101°
2026-05-04 18:26 45.46835 12.48026 36541 ft 474 kts 101°
2026-05-04 18:26 45.46267 12.52649 36806 ft 474 kts 100°
2026-05-04 18:27 45.45696 12.57274 37016 ft 475 kts 101°
2026-05-04 18:27 45.45123 12.61904 37062 ft 474 kts 101°
2026-05-04 18:27 45.43970 12.71142 37060 ft 474 kts 101°
2026-05-04 18:28 45.42808 12.80380 37059 ft 474 kts 101°
2026-05-04 18:28 45.41649 12.89617 37060 ft 474 kts 101°
2026-05-04 18:29 45.40484 12.98836 37063 ft 473 kts 101°
2026-05-04 18:29 45.39303 13.08046 37068 ft 473 kts 101°
2026-05-04 18:30 45.38321 13.22005 37083 ft 474 kts 93°
2026-05-04 18:31 45.37946 13.31354 37091 ft 474 kts 93°
2026-05-04 18:31 45.37559 13.40647 37095 ft 474 kts 94°
2026-05-04 18:32 45.37152 13.49995 37110 ft 473 kts 94°
2026-05-04 18:32 45.36742 13.59335 37108 ft 473 kts 94°
2026-05-04 18:33 45.36322 13.68667 37101 ft 473 kts 94°
2026-05-04 18:33 45.35894 13.77990 37109 ft 472 kts 94°
2026-05-04 18:34 45.35460 13.87295 37107 ft 471 kts 94°
2026-05-04 18:34 45.35022 13.96584 37114 ft 471 kts 94°
2026-05-04 18:35 45.34573 14.05867 37115 ft 471 kts 94°
2026-05-04 18:35 45.34118 14.15142 37113 ft 470 kts 94°
2026-05-04 18:36 45.33660 14.24410 37115 ft 470 kts 94°
2026-05-04 18:36 45.33198 14.33671 37110 ft 470 kts 94°
2026-05-04 18:37 45.32725 14.42871 37108 ft 470 kts 94°
2026-05-04 18:37 45.32243 14.52134 37132 ft 470 kts 94°
2026-05-04 18:38 45.31756 14.61391 37135 ft 470 kts 94°
2026-05-04 18:38 45.31261 14.70635 37133 ft 469 kts 94°
2026-05-04 18:39 45.30751 14.79879 37122 ft 469 kts 94°
2026-05-04 18:39 45.30245 14.89109 37121 ft 468 kts 94°
2026-05-04 18:40 45.29729 14.98328 37116 ft 468 kts 94°
2026-05-04 18:40 45.29201 15.07546 37101 ft 468 kts 94°
2026-05-04 18:41 45.28668 15.16757 37090 ft 468 kts 94°
2026-05-04 18:41 45.28126 15.25971 37088 ft 468 kts 94°
2026-05-04 18:42 45.26779 15.34977 37084 ft 468 kts 111°
2026-05-04 18:42 45.24374 15.43553 37084 ft 468 kts 112°
2026-05-04 18:43 45.21972 15.52133 37079 ft 468 kts 112°
2026-05-04 18:43 45.19567 15.60708 37076 ft 468 kts 112°
2026-05-04 18:44 45.17158 15.69287 37072 ft 468 kts 112°
2026-05-04 18:44 45.14740 15.77854 37077 ft 468 kts 112°
2026-05-04 18:45 45.12313 15.86414 37078 ft 468 kts 112°
2026-05-04 18:45 45.09897 15.94901 37081 ft 468 kts 112°
2026-05-04 18:46 45.07457 16.03441 37081 ft 468 kts 112°
2026-05-04 18:46 45.05015 16.11959 37077 ft 467 kts 112°
2026-05-04 18:47 45.02567 16.20460 37080 ft 467 kts 112°
2026-05-04 18:47 45.00110 16.28950 37071 ft 467 kts 112°
2026-05-04 18:48 44.97879 16.37558 37072 ft 466 kts 107°
2026-05-04 18:48 44.95992 16.46317 37071 ft 467 kts 106°
2026-05-04 18:49 44.94119 16.55102 37069 ft 467 kts 107°
2026-05-04 18:49 44.92149 16.63839 37074 ft 467 kts 107°
2026-05-04 18:50 44.90131 16.72545 37082 ft 467 kts 107°
2026-05-04 18:50 44.88111 16.81243 37077 ft 466 kts 107°
2026-05-04 18:51 44.86102 16.89931 37064 ft 466 kts 107°
2026-05-04 18:51 44.84093 16.98612 37069 ft 466 kts 108°
2026-05-04 18:52 44.81458 17.06953 37061 ft 467 kts 115°
2026-05-04 18:52 44.78677 17.15145 37060 ft 467 kts 115°
2026-05-04 18:53 44.75875 17.23387 37059 ft 467 kts 115°
2026-05-04 18:53 44.73066 17.31615 37063 ft 467 kts 115°
2026-05-04 18:54 44.70247 17.39829 37068 ft 466 kts 115°
2026-05-04 18:54 44.67426 17.48036 37071 ft 466 kts 115°
2026-05-04 18:55 44.64609 17.56229 37070 ft 466 kts 115°
2026-05-04 18:55 44.60372 17.68509 37080 ft 466 kts 115°
2026-05-04 18:56 44.57532 17.76673 37081 ft 466 kts 115°
2026-05-04 18:56 44.54693 17.84837 37075 ft 466 kts 115°
2026-05-04 18:57 44.51844 17.92997 37072 ft 466 kts 115°
2026-05-04 18:57 44.48988 18.01153 37087 ft 466 kts 115°
2026-05-04 18:58 44.46127 18.09309 37081 ft 467 kts 115°
2026-05-04 18:58 44.43276 18.17398 37081 ft 467 kts 115°
2026-05-04 18:59 44.40398 18.25547 37079 ft 467 kts 115°
2026-05-04 18:59 44.37514 18.33681 37085 ft 467 kts 115°
2026-05-04 19:00 44.34626 18.41820 37085 ft 468 kts 115°
2026-05-04 19:00 44.31726 18.49954 37084 ft 468 kts 115°
2026-05-04 19:01 44.29136 18.58255 37095 ft 466 kts 108°
2026-05-04 19:01 44.26967 18.66781 37098 ft 466 kts 108°
2026-05-04 19:02 44.24783 18.75298 37098 ft 466 kts 108°
2026-05-04 19:02 44.22582 18.83799 37097 ft 466 kts 108°
2026-05-04 19:03 44.20379 18.92298 37113 ft 466 kts 108°
2026-05-04 19:03 44.18177 19.00794 37109 ft 466 kts 108°
2026-05-04 19:04 44.15985 19.09212 37109 ft 465 kts 108°
2026-05-04 19:04 44.13759 19.17677 37102 ft 465 kts 109°
2026-05-04 19:05 44.11369 19.26049 37114 ft 466 kts 111°
2026-05-04 19:05 44.08810 19.34340 37117 ft 466 kts 112°
2026-05-04 19:06 44.06248 19.42610 37115 ft 465 kts 111°
2026-05-04 19:06 44.03728 19.50890 37118 ft 465 kts 111°
2026-05-04 19:07 44.01225 19.59176 37127 ft 465 kts 111°
2026-05-04 19:07 43.98693 19.67503 37098 ft 470 kts 111°
2026-05-04 19:08 43.96125 19.75872 37098 ft 472 kts 111°
2026-05-04 19:08 43.93548 19.84245 37097 ft 472 kts 111°
2026-05-04 19:09 43.90968 19.92611 37097 ft 472 kts 111°
2026-05-04 19:09 43.88381 20.00966 37101 ft 472 kts 111°
2026-05-04 19:10 43.85789 20.09325 37107 ft 473 kts 111°
2026-05-04 19:10 43.83187 20.17694 37118 ft 473 kts 111°
2026-05-04 19:11 43.80578 20.26060 37141 ft 473 kts 111°
2026-05-04 19:11 43.77957 20.34413 37137 ft 473 kts 111°
2026-05-04 19:12 43.74016 20.46909 37139 ft 473 kts 111°
2026-05-04 19:13 43.71835 20.53831 37155 ft 473 kts 111°
2026-05-04 19:13 43.69206 20.62156 37143 ft 473 kts 111°
2026-05-04 19:14 43.66564 20.70476 37135 ft 473 kts 111°
2026-05-04 19:14 43.63909 20.78794 37134 ft 474 kts 111°
2026-05-04 19:15 43.61248 20.87112 37139 ft 475 kts 111°
2026-05-04 19:15 43.58141 20.96809 37128 ft 476 kts 111°
2026-05-04 19:16 43.55892 21.03798 37138 ft 476 kts 111°
2026-05-04 19:16 43.53193 21.12149 37129 ft 477 kts 111°
2026-05-04 19:17 43.50493 21.20497 37142 ft 477 kts 111°
2026-05-04 19:17 43.47807 21.28770 37133 ft 476 kts 111°
2026-05-04 19:18 43.45098 21.37075 37130 ft 476 kts 111°
2026-05-04 19:18 43.42379 21.45377 37042 ft 476 kts 112°
2026-05-04 19:18 43.41020 21.49526 36457 ft 476 kts 111°
2026-05-04 19:19 43.39663 21.53664 35873 ft 473 kts 111°
2026-05-04 19:19 43.38309 21.57781 35310 ft 472 kts 111°
2026-05-04 19:19 43.36955 21.61888 34749 ft 471 kts 111°
2026-05-04 19:19 43.35604 21.65986 34199 ft 471 kts 111°
2026-05-04 19:20 43.34257 21.70072 33601 ft 468 kts 111°
2026-05-04 19:20 43.32915 21.74130 33011 ft 465 kts 111°
2026-05-04 19:20 43.31579 21.78167 32428 ft 463 kts 112°
2026-05-04 19:20 43.30248 21.82193 31859 ft 463 kts 112°
2026-05-04 19:21 43.28916 21.86214 31304 ft 462 kts 112°
2026-05-04 19:21 43.27587 21.90208 30759 ft 459 kts 112°
2026-05-04 19:21 43.26265 21.94166 30313 ft 453 kts 112°
2026-05-04 19:21 43.24958 21.98077 29903 ft 449 kts 112°
2026-05-04 19:22 43.23662 22.01953 29313 ft 444 kts 112°
2026-05-04 19:22 43.22381 22.05779 28751 ft 440 kts 112°
2026-05-04 19:22 43.21112 22.09572 28185 ft 435 kts 114°
2026-05-04 19:22 43.19855 22.13326 27625 ft 431 kts 114°
2026-05-04 19:23 43.18607 22.17043 27070 ft 428 kts 114°
2026-05-04 19:23 43.17369 22.20725 26535 ft 424 kts 114°
2026-05-04 19:23 43.16139 22.24378 25999 ft 420 kts 114°
2026-05-04 19:23 43.14917 22.27999 25450 ft 417 kts 114°
2026-05-04 19:24 43.13703 22.31594 24934 ft 414 kts 114°
2026-05-04 19:24 43.12496 22.35164 24433 ft 412 kts 114°
2026-05-04 19:24 43.11299 22.38707 23928 ft 410 kts 114°
2026-05-04 19:24 43.10103 22.42242 23393 ft 408 kts 114°
2026-05-04 19:25 43.08914 22.45747 22920 ft 404 kts 114°
2026-05-04 19:25 43.07735 22.49215 22449 ft 400 kts 114°
2026-05-04 19:25 43.06563 22.52650 21984 ft 397 kts 114°
2026-05-04 19:25 43.05399 22.56054 21532 ft 393 kts 114°
2026-05-04 19:26 43.04246 22.59423 21085 ft 389 kts 114°
2026-05-04 19:26 43.03104 22.62757 20622 ft 386 kts 114°
2026-05-04 19:26 43.01972 22.66056 20157 ft 382 kts 114°
2026-05-04 19:26 43.00849 22.69331 19691 ft 379 kts 114°
2026-05-04 19:27 42.99737 22.72576 19217 ft 376 kts 114°
2026-05-04 19:27 42.98649 22.75758 18745 ft 374 kts 113°
2026-05-04 19:27 42.97507 22.78930 18237 ft 372 kts 118°
2026-05-04 19:27 42.96014 22.81793 17734 ft 369 kts 129°
2026-05-04 19:28 42.94343 22.84439 17285 ft 367 kts 129°
2026-05-04 19:28 42.92685 22.87071 16829 ft 364 kts 128°
2026-05-04 19:28 42.91047 22.89679 16376 ft 361 kts 128°
2026-05-04 19:28 42.89422 22.92268 15920 ft 357 kts 128°
2026-05-04 19:29 42.87811 22.94831 15481 ft 354 kts 128°
2026-05-04 19:29 42.86214 22.97366 15038 ft 351 kts 128°
2026-05-04 19:29 42.84632 22.99877 14596 ft 347 kts 127°
2026-05-04 19:29 42.83066 23.02366 14166 ft 344 kts 127°
2026-05-04 19:30 42.81516 23.04828 13712 ft 341 kts 127°
2026-05-04 19:30 42.79977 23.07271 13275 ft 339 kts 127°
2026-05-04 19:30 42.78442 23.09705 12832 ft 338 kts 127°
2026-05-04 19:30 42.76917 23.12118 12428 ft 336 kts 127°
2026-05-04 19:31 42.75396 23.14516 12010 ft 334 kts 127°
2026-05-04 19:31 42.73897 23.16919 11629 ft 330 kts 123°
2026-05-04 19:31 42.72776 23.19610 11381 ft 326 kts 112°
2026-05-04 19:31 42.71779 23.22382 11144 ft 326 kts 112°
2026-05-04 19:32 42.70787 23.25151 10891 ft 325 kts 112°
2026-05-04 19:32 42.69798 23.27912 10639 ft 324 kts 112°
2026-05-04 19:32 42.68824 23.30627 10446 ft 313 kts 112°
2026-05-04 19:32 42.67890 23.33228 10320 ft 300 kts 111°
2026-05-04 19:33 42.66993 23.35721 10185 ft 288 kts 111°
2026-05-04 19:33 42.66123 23.38144 9947 ft 282 kts 111°
2026-05-04 19:33 42.65270 23.40527 9828 ft 281 kts 111°
2026-05-04 19:33 42.64413 23.42927 9452 ft 284 kts 111°
2026-05-04 19:34 42.63546 23.45343 9024 ft 284 kts 112°
2026-05-04 19:34 42.62675 23.47756 8468 ft 285 kts 112°
2026-05-04 19:34 42.61811 23.50152 7895 ft 282 kts 112°
2026-05-04 19:34 42.60969 23.52545 7317 ft 280 kts 108°
2026-05-04 19:35 42.60475 23.55059 6781 ft 272 kts 94°
2026-05-04 19:35 42.60327 23.57571 6471 ft 262 kts 91°
2026-05-04 19:35 42.60181 23.59987 6154 ft 252 kts 92°
2026-05-04 19:35 42.60174 23.62302 5855 ft 239 kts 73°
2026-05-04 19:36 42.60956 23.64193 5525 ft 229 kts 39°
2026-05-04 19:36 42.62345 23.65128 5199 ft 223 kts
2026-05-04 19:36 42.63890 23.65231 4879 ft 222 kts
2026-05-04 19:36 42.65431 23.65374 4543 ft 222 kts
2026-05-04 19:37 42.66912 23.64966 4225 ft 217 kts 331°
2026-05-04 19:37 42.67990 23.63606 4059 ft 211 kts 301°
2026-05-04 19:37 42.68425 23.61735 4056 ft 207 kts 276°
2026-05-04 19:37 42.68540 23.59856 3989 ft 195 kts 275°
2026-05-04 19:38 42.68647 23.58072 3815 ft 184 kts 275°
2026-05-04 19:38 42.68750 23.56389 3567 ft 174 kts 274°
2026-05-04 19:38 42.68849 23.54784 3323 ft 168 kts 273°
2026-05-04 19:38 42.68942 23.53275 3131 ft 153 kts 273°
2026-05-04 19:39 42.69029 23.51862 2918 ft 148 kts 272°
2026-05-04 19:39 42.69113 23.50487 2730 ft 145 kts 273°
2026-05-04 19:39 42.69197 23.49129 2538 ft 144 kts 274°
2026-05-04 19:39 42.69284 23.47777 2359 ft 143 kts 274°
2026-05-04 19:40 42.69363 23.46430 2158 ft 143 kts 273°
2026-05-04 19:40 42.69437 23.45086 1975 ft 143 kts 274°
2026-05-04 19:40 42.69526 23.43746 1774 ft 142 kts 274°
2026-05-04 19:40 42.69597 23.42572 1744 ft 107 kts 275°
2026-05-04 19:41 42.69649 23.41677 1752 ft 84 kts 276°
2026-05-04 19:41 42.69683 23.41112 1745 ft 35 kts 272°
2026-05-04 19:41 42.69648 23.40831 1742 ft 24 kts 249°
2026-05-04 19:41 42.69590 23.40663 1741 ft 19 kts 244°
2026-05-04 19:42 42.69532 23.40513 1744 ft 17 kts 230°
2026-05-04 19:42 42.69431 23.40452 1745 ft 16 kts 197°
2026-05-04 19:42 42.69319 23.40407 1740 ft 18 kts 196°
2026-05-04 19:42 42.69199 23.40355 1749 ft 13 kts 195°
2026-05-04 19:43 42.69144 23.40370 1746 ft 9 kts 126°
2026-05-04 19:43 42.69116 23.40438 1746 ft 6 kts 166°
2026-05-04 19:43 42.69074 23.40424 1746 ft 3 kts 196°
2026-05-04 19:43 42.69062 23.40420 1749 ft 1 kts 196°
2026-05-04 19:44 42.69060 23.40419 1749 ft 0 kts 196°